Time,TemperatureF,DewpointF,PressureIn,WindDirection,WindDirectionDegrees,WindSpeedMPH,WindSpeedGustMPH,Humidity,HourlyPrecipIn,Conditions,Clouds,dailyrainin,SoftwareType,DateUTC
2013-03-08 00:01:00,36.3,35.8,29.64,NE,45,3.2,-999.0,98,-99.99,,,0.00,Acu-Link.com,2013-03-08 08:01:00,
2013-03-08 00:16:00,35.4,34.9,29.64,SE,135,7.8,-999.0,98,-99.99,,,0.00,Acu-Link.com,2013-03-08 08:16:00,
2013-03-08 00:31:00,34.9,34.4,29.62,South,180,3.2,-999.0,98,-99.99,,,0.00,Acu-Link.com,2013-03-08 08:31:00,
2013-03-08 00:46:00,34.7,34.2,29.63,SW,225,7.8,-999.0,98,-99.99,,,0.00,Acu-Link.com,2013-03-08 08:46:00,
2013-03-08 01:01:00,34.7,34.2,29.62,SW,225,3.2,-999.0,98,-99.99,,,0.00,Acu-Link.com,2013-03-08 09:01:00,
2013-03-08 01:16:00,34.7,34.2,29.62,West,270,2.2,-999.0,98,-99.99,,,0.00,Acu-Link.com,2013-03-08 09:16:00,
2013-03-08 01:31:00,35.8,35.3,29.61,NW,315,2.7,-999.0,98,-99.99,,,0.00,Acu-Link.com,2013-03-08 09:31:00,
2013-03-08 01:46:00,35.8,35.3,29.61,SSW,202,4.2,-999.0,98,-99.99,,,0.00,Acu-Link.com,2013-03-08 09:46:00,
2013-03-08 02:02:00,36.1,35.6,29.58,SW,225,0.0,-999.0,98,-99.99,,,0.00,Acu-Link.com,2013-03-08 10:02:00,
2013-03-08 02:17:00,36.5,36.0,29.58,WNW,292,1.7,-999.0,98,-99.99,,,0.00,Acu-Link.com,2013-03-08 10:17:00,
2013-03-08 02:32:00,36.5,36.0,29.56,South,180,2.2,-999.0,98,-99.99,,,0.00,Acu-Link.com,2013-03-08 10:32:00,
2013-03-08 02:47:00,36.5,36.0,29.56,NE,45,0.0,-999.0,98,-99.99,,,0.00,Acu-Link.com,2013-03-08 10:47:00,
2013-03-08 03:02:00,36.5,36.0,29.54,WSW,247,0.0,-999.0,98,-99.99,,,0.00,Acu-Link.com,2013-03-08 11:02:00,
2013-03-08 03:17:00,36.5,36.0,29.53,WSW,247,2.7,-999.0,98,-99.99,,,0.00,Acu-Link.com,2013-03-08 11:17:00,
2013-03-08 03:32:00,36.7,36.2,29.52,North,0,0.0,-999.0,98,-99.99,,,0.00,Acu-Link.com,2013-03-08 11:32:00,
2013-03-08 03:47:00,36.5,36.0,29.53,South,180,1.7,-999.0,98,-99.99,,,0.00,Acu-Link.com,2013-03-08 11:47:00,
2013-03-08 04:03:00,36.5,36.0,29.54,ESE,112,0.0,-999.0,98,-99.99,,,0.00,Acu-Link.com,2013-03-08 12:03:00,
2013-03-08 04:18:00,37.2,36.7,29.53,ESE,112,3.2,-999.0,98,-99.99,,,0.00,Acu-Link.com,2013-03-08 12:18:00,
2013-03-08 04:33:00,37.2,36.7,29.52,WSW,247,0.0,-999.0,98,-99.99,,,0.00,Acu-Link.com,2013-03-08 12:33:00,
2013-03-08 04:48:00,37.2,36.7,29.53,SW,225,0.0,-999.0,98,-99.99,,,0.00,Acu-Link.com,2013-03-08 12:48:00,
2013-03-08 05:03:00,36.9,36.4,29.54,NW,315,0.0,-999.0,98,-99.99,,,0.00,Acu-Link.com,2013-03-08 13:03:00,
2013-03-08 05:18:00,36.3,35.8,29.53,NNE,22,0.0,-999.0,98,-99.99,,,0.00,Acu-Link.com,2013-03-08 13:18:00,
2013-03-08 05:33:00,35.8,35.3,29.53,East,90,0.0,-999.0,98,-99.99,,,0.00,Acu-Link.com,2013-03-08 13:33:00,
2013-03-08 05:48:00,34.9,34.4,29.54,SSE,157,0.0,-999.0,98,-99.99,,,0.00,Acu-Link.com,2013-03-08 13:48:00,
2013-03-08 06:04:00,34.0,33.5,29.54,SSE,157,0.0,-999.0,98,-99.99,,,0.00,Acu-Link.com,2013-03-08 14:04:00,
2013-03-08 06:19:00,33.6,33.1,29.56,WSW,247,0.0,-999.0,98,-99.99,,,0.00,Acu-Link.com,2013-03-08 14:19:00,
2013-03-08 06:34:00,33.6,33.1,29.57,NNE,22,0.0,-999.0,98,-99.99,,,0.00,Acu-Link.com,2013-03-08 14:34:00,
2013-03-08 06:49:00,33.8,33.3,29.58,SE,135,0.0,-999.0,98,-99.99,,,0.00,Acu-Link.com,2013-03-08 14:49:00,
2013-03-08 07:04:00,34.2,33.7,29.58,ESE,112,0.0,-999.0,98,-99.99,,,0.00,Acu-Link.com,2013-03-08 15:04:00,
2013-03-08 07:19:00,34.5,34.0,29.58,SSW,202,0.0,-999.0,98,-99.99,,,0.00,Acu-Link.com,2013-03-08 15:19:00,
2013-03-08 07:34:00,34.7,34.2,29.58,South,180,0.0,-999.0,98,-99.99,,,0.00,Acu-Link.com,2013-03-08 15:34:00,
2013-03-08 07:49:00,34.7,34.2,29.58,SW,225,0.0,-999.0,98,-99.99,,,0.00,Acu-Link.com,2013-03-08 15:49:00,
2013-03-08 08:04:00,34.3,33.8,29.58,West,270,0.0,-999.0,98,-99.99,,,0.00,Acu-Link.com,2013-03-08 16:04:00,
2013-03-08 08:20:00,35.4,34.9,29.57,WSW,247,0.0,-999.0,98,-99.99,,,0.00,Acu-Link.com,2013-03-08 16:20:00,
2013-03-08 08:35:00,33.8,33.3,29.59,East,90,0.0,-999.0,98,-99.99,,,0.00,Acu-Link.com,2013-03-08 16:35:00,
2013-03-08 08:50:00,37.2,36.7,29.58,South,180,0.0,-999.0,98,-99.99,,,0.00,Acu-Link.com,2013-03-08 16:50:00,
2013-03-08 09:05:00,36.0,35.5,29.59,SW,225,0.0,-999.0,98,-99.99,,,0.00,Acu-Link.com,2013-03-08 17:05:00,
2013-03-08 09:20:00,37.4,36.9,29.59,West,270,0.0,-999.0,98,-99.99,,,0.00,Acu-Link.com,2013-03-08 17:20:00,
2013-03-08 13:19:00,-999.0,-99.9,-100.00,North,-999,-999.0,-999.0,-999,-99.99,,,-99.99,Acu-Link.com,2013-03-08 21:19:00,
2013-03-08 13:35:00,35.8,28.3,29.63,North,-999,-999.0,-999.0,74,-99.99,,,-99.99,Acu-Link.com,2013-03-08 21:35:00,
2013-03-08 13:50:00,35.2,34.7,29.63,SW,225,0.0,-999.0,98,-99.99,,,0.00,Acu-Link.com,2013-03-08 21:50:00,
2013-03-08 14:05:00,35.2,34.7,29.64,NW,315,0.0,-999.0,98,-99.99,,,0.00,Acu-Link.com,2013-03-08 22:05:00,
2013-03-08 14:20:00,33.4,32.9,29.63,SW,225,0.0,-999.0,98,-99.99,,,0.00,Acu-Link.com,2013-03-08 22:20:00,
2013-03-08 14:35:00,34.0,33.5,29.63,SSW,202,0.0,-999.0,98,-99.99,,,0.00,Acu-Link.com,2013-03-08 22:35:00,
2013-03-08 14:51:00,33.8,33.3,29.65,SW,225,0.0,-999.0,98,-99.99,,,0.01,Acu-Link.com,2013-03-08 22:51:00,
2013-03-08 15:06:00,37.4,36.9,29.63,WSW,247,0.0,-999.0,98,-99.99,,,0.01,Acu-Link.com,2013-03-08 23:06:00,
2013-03-08 15:21:00,36.5,36.0,29.63,WSW,247,0.0,-999.0,98,-99.99,,,0.02,Acu-Link.com,2013-03-08 23:21:00,
2013-03-08 15:36:00,33.4,32.9,29.64,SSW,202,0.0,-999.0,98,-99.99,,,0.02,Acu-Link.com,2013-03-08 23:36:00,
2013-03-08 15:51:00,34.7,34.2,29.63,West,270,0.0,-999.0,98,-99.99,,,0.03,Acu-Link.com,2013-03-08 23:51:00,
2013-03-08 16:06:00,33.8,33.3,29.63,WSW,247,0.0,-999.0,98,-99.99,,,0.03,Acu-Link.com,2013-03-09 00:06:00,
2013-03-08 16:21:00,33.4,32.9,29.64,WNW,292,0.0,-999.0,98,-99.99,,,0.03,Acu-Link.com,2013-03-09 00:21:00,
2013-03-08 16:36:00,33.1,32.6,29.64,SSW,202,0.0,-999.0,98,-99.99,,,0.03,Acu-Link.com,2013-03-09 00:36:00,
2013-03-08 16:51:00,32.9,32.4,29.65,SW,225,1.1,-999.0,98,-99.99,,,0.03,Acu-Link.com,2013-03-09 00:51:00,
2013-03-08 17:07:00,32.4,31.9,29.67,South,180,1.7,-999.0,98,-99.99,,,0.03,Acu-Link.com,2013-03-09 01:07:00,
2013-03-08 17:22:00,32.5,32.0,29.67,SSE,157,3.7,-999.0,98,-99.99,,,0.03,Acu-Link.com,2013-03-09 01:22:00,
2013-03-08 17:37:00,32.9,32.4,29.68,SSW,202,1.1,-999.0,98,-99.99,,,0.03,Acu-Link.com,2013-03-09 01:37:00,
2013-03-08 17:52:00,33.8,33.3,29.69,South,180,1.7,-999.0,98,-99.99,,,0.03,Acu-Link.com,2013-03-09 01:52:00,
2013-03-08 18:07:00,34.2,33.7,29.70,SW,225,0.0,-999.0,98,-99.99,,,0.03,Acu-Link.com,2013-03-09 02:07:00,
2013-03-08 18:22:00,34.7,34.2,29.70,NNW,337,1.1,-999.0,98,-99.99,,,0.03,Acu-Link.com,2013-03-09 02:22:00,
2013-03-08 18:38:00,35.1,34.6,29.70,SW,225,0.0,-999.0,98,-99.99,,,0.03,Acu-Link.com,2013-03-09 02:38:00,
2013-03-08 18:53:00,35.4,34.9,29.70,West,270,2.2,-999.0,98,-99.99,,,0.03,Acu-Link.com,2013-03-09 02:53:00,
2013-03-08 19:08:00,35.6,35.1,29.72,East,90,1.7,-999.0,98,-99.99,,,0.03,Acu-Link.com,2013-03-09 03:08:00,
2013-03-08 19:23:00,36.0,35.5,29.72,South,180,1.7,-999.0,98,-99.99,,,0.03,Acu-Link.com,2013-03-09 03:23:00,
2013-03-08 19:38:00,36.1,35.6,29.74,SE,135,1.1,-999.0,98,-99.99,,,0.03,Acu-Link.com,2013-03-09 03:38:00,
2013-03-08 19:53:00,31.6,29.1,29.75,North,-999,-999.0,-999.0,90,-99.99,,,-99.99,Acu-Link.com,2013-03-09 03:53:00,
2013-03-08 20:08:00,31.8,29.2,29.76,North,-999,-999.0,-999.0,90,-99.99,,,-99.99,Acu-Link.com,2013-03-09 04:08:00,
2013-03-08 20:23:00,31.8,29.2,29.76,North,-999,-999.0,-999.0,90,-99.99,,,-99.99,Acu-Link.com,2013-03-09 04:23:00,
2013-03-08 20:39:00,32.0,31.0,29.77,North,-999,-999.0,-999.0,96,-99.99,,,-99.99,Acu-Link.com,2013-03-09 04:39:00,
2013-03-08 20:54:00,32.2,31.2,29.77,North,-999,-999.0,-999.0,96,-99.99,,,-99.99,Acu-Link.com,2013-03-09 04:54:00,
2013-03-08 21:09:00,32.2,31.2,29.78,North,-999,-999.0,-999.0,96,-99.99,,,-99.99,Acu-Link.com,2013-03-09 05:09:00,
2013-03-08 21:24:00,32.2,31.2,29.79,North,-999,-999.0,-999.0,96,-99.99,,,-99.99,Acu-Link.com,2013-03-09 05:24:00,
2013-03-08 21:39:00,32.2,31.2,29.78,North,-999,-999.0,-999.0,96,-99.99,,,-99.99,Acu-Link.com,2013-03-09 05:39:00,
2013-03-08 21:55:00,32.4,31.6,29.80,North,-999,-999.0,-999.0,97,-99.99,,,-99.99,Acu-Link.com,2013-03-09 05:55:00,
2013-03-08 22:11:00,32.4,31.6,29.80,North,-999,-999.0,-999.0,97,-99.99,,,-99.99,Acu-Link.com,2013-03-09 06:11:00,
2013-03-08 22:26:00,32.4,31.9,29.79,North,-999,-999.0,-999.0,98,-99.99,,,-99.99,Acu-Link.com,2013-03-09 06:26:00,
2013-03-08 22:41:00,32.0,31.5,29.79,North,-999,-999.0,-999.0,98,-99.99,,,-99.99,Acu-Link.com,2013-03-09 06:41:00,
2013-03-08 22:56:00,32.2,31.7,29.79,North,-999,-999.0,-999.0,98,-99.99,,,-99.99,Acu-Link.com,2013-03-09 06:56:00,
2013-03-08 23:12:00,32.4,31.9,29.79,North,-999,-999.0,-999.0,98,-99.99,,,-99.99,Acu-Link.com,2013-03-09 07:12:00,
2013-03-08 23:27:00,32.4,31.9,29.79,North,-999,-999.0,-999.0,98,-99.99,,,-99.99,Acu-Link.com,2013-03-09 07:27:00,
2013-03-08 23:42:00,32.2,31.7,29.79,North,-999,-999.0,-999.0,98,-99.99,,,-99.99,Acu-Link.com,2013-03-09 07:42:00,
2013-03-08 23:57:00,32.4,31.9,29.80,North,-999,-999.0,-999.0,98,-99.99,,,-99.99,Acu-Link.com,2013-03-09 07:57:00,